Wind_Speed
29 29 29 29 29 30 30 30 29 29 28 28 27 26 25 24 22 21 24 26 27 28 28 28 27 26 25 23 22 21 20 19 19 19 19 18 17 16 15 13 11 10 8
31 31 31 31 31 31 31 30 30 29 29 29 29 28 27 24 24 23 24 25 27 29 30 30 30 29 28 26 25 24 23 22 21 22 21 20 19 19 17 16 15 13 11
32 32 32 32 32 32 31 31 31 30 30 30 30 29 28 27 25 24 24 25 27 30 32 32 32 31 30 29 27 26 26 25 24 23 23 22 22 21 20 19 17 16 14
32 33 33 32 32 32 32 32 31 31 30 30 30 29 28 28 27 26 25 25 26 29 31 33 34 34 33 32 29 28 27 27 26 25 25 24 23 23 22 21 20 19 17
33 33 33 33 33 33 33 32 32 31 31 30 29 29 29 28 28 27 27 27 26 28 30 32 34 36 36 34 32 31 29 28 28 27 26 26 25 24 24 23 22 22 21
33 33 33 33 33 33 33 33 33 33 32 31 30 29 29 29 29 28 27 27 28 28 29 30 33 36 38 36 34 33 31 29 29 29 28 27 26 26 25 24 24 24 23
33 33 33 33 34 34 34 34 33 33 32 32 31 30 30 30 29 29 28 28 29 30 29 31 33 36 37 37 36 35 33 31 30 30 30 29 28 28 27 27 26 25 25
32 32 33 33 33 34 34 34 34 33 33 33 32 32 31 31 30 30 30 29 29 31 31 31 34 36 38 38 37 36 34 33 32 32 31 31 30 29 28 28 27 27 27
32 32 32 32 32 32 33 33 34 34 35 34 34 33 32 32 32 31 31 31 31 32 32 33 35 36 38 39 38 38 37 36 34 34 33 32 32 30 30 29 29 28 28
31 31 31 31 31 31 32 32 33 33 34 35 34 34 33 33 33 33 33 32 31 32 32 32 35 36 38 40 39 39 39 38 37 36 36 35 34 33 31 30 30 30 30
31 30 30 31 31 31 32 32 33 33 33 34 34 34 34 34 34 34 34 34 33 32 34 34 34 36 38 40 41 41 41 41 40 39 38 37 36 35 33 32 31 30 30
31 31 31 31 32 32 33 33 34 34 34 34 35 35 35 35 35 35 35 35 34 34 34 34 36 37 38 39 41 42 42 42 41 41 40 39 38 36 35 33 32 31 30
32 33 33 33 34 34 35 35 35 36 36 36 36 36 36 36 37 36 36 36 35 35 36 36 36 38 37 39 41 43 43 43 43 42 41 41 40 38 36 35 33 31 30
33 34 35 36 37 37 37 37 37 37 38 38 38 38 37 37 37 37 37 37 37 37 37 37 37 37 38 38 41 43 43 43 44 43 43 42 41 40 38 37 34 33 31
35 36 37 37 38 38 38 38 38 38 39 39 40 40 39 39 39 39 39 39 39 39 38 38 38 38 39 39 40 42 44 44 44 43 43 43 42 41 39 38 36 34 32
38 38 39 39 39 38 38 38 38 38 38 39 39 40 41 41 41 41 41 41 40 40 39 39 40 40 40 39 39 41 43 44 44 45 44 44 43 42 40 39 37 35 33
40 40 39 39 39 38 38 37 37 37 37 37 38 39 40 41 42 43 43 43 43 42 41 41 41 41 42 41 41 42 43 45 45 45 45 45 44 43 41 39 37 35 33
41 41 40 39 39 38 37 36 36 36 36 37 38 39 40 41 42 43 44 44 45 44 43 43 43 42 42 43 43 43 44 47 46 46 46 45 44 43 41 40 38 36 34
43 42 41 40 39 38 37 37 37 37 37 37 38 39 40 41 42 44 45 46 47 47 45 45 45 45 44 44 43 45 45 47 49 48 47 46 45 44 42 40 38 36 35
44 43 42 41 40 39 38 38 37 37 37 37 38 39 40 42 43 45 46 47 48 49 48 47 47 48 46 45 45 45 45 47 49 49 49 48 46 44 43 41 39 38 35
45 43 43 42 41 40 39 38 37 36 36 37 38 39 40 42 44 46 47 49 50 51 51 49 50 50 49 47 47 46 47 47 48 49 49 49 46 45 44 42 40 38 36
46 44 44 42 41 41 40 38 37 36 36 37 38 39 41 42 44 46 48 50 52 53 54 53 52 52 51 50 49 47 47 48 47 48 49 48 47 46 44 43 41 39 37
46 45 44 42 41 41 40 38 37 36 36 37 38 40 41 42 43 45 47 49 52 54 56 57 56 55 55 53 51 50 48 48 49 49 49 49 48 46 45 43 42 40 38
46 44 43 42 41 40 39 38 38 37 36 36 37 38 40 41 43 44 46 48 51 54 57 59 59 58 58 57 54 52 51 49 49 51 51 50 49 47 46 45 43 41 39
46 44 43 42 41 40 39 38 37 36 35 35 36 37 37 38 40 42 44 46 49 52 56 60 62 62 61 60 58 56 53 51 50 51 52 51 50 48 47 46 44 42 40
45 44 42 42 40 39 38 38 37 36 34 34 34 35 35 35 37 40 41 43 45 50 55 59 63 65 64 63 61 59 55 53 51 51 52 52 51 50 48 47 45 44 42
Wind_Direction
291 291 290 289 289 288 288 287 284 282 281 281 281 282 282 280 275 266 253 246 242 239 236 235 233 229 225 223 221 219 218 219 220 220 219 219 220 221 222 224 226 229 231
289 289 289 288 287 287 286 284 282 280 280 279 278 277 276 275 273 268 257 248 244 241 238 235 233 231 228 225 223 222 220 220 221 222 222 222 223 224 225 227 228 230 231
289 289 289 288 286 286 285 283 280 279 278 276 275 273 271 269 269 265 260 253 247 243 239 236 233 232 230 227 225 225 224 223 223 223 224 225 225 226 227 228 229 230 231
291 290 289 287 286 284 283 281 279 278 276 274 272 269 267 264 263 262 260 256 251 244 240 237 234 232 229 227 226 226 225 225 224 224 225 226 226 227 228 229 229 230 231
294 292 290 288 286 284 282 280 278 277 275 272 270 268 265 263 260 259 259 255 250 246 241 239 235 232 228 226 227 227 227 226 227 226 226 226 227 229 230 230 230 231 232
297 295 293 290 287 285 283 281 279 276 274 271 269 267 264 261 259 257 257 254 249 244 240 239 235 231 228 226 226 226 227 228 229 228 228 227 228 230 231 231 231 231 232
298 296 294 291 288 286 284 281 279 276 274 271 268 265 263 260 257 255 254 252 248 243 240 238 234 230 227 226 225 225 225 227 228 228 228 229 231 231 231 232 232 233 232
300 298 295 292 289 286 284 282 280 277 274 271 268 265 262 259 256 254 252 250 247 243 240 236 233 230 227 225 224 223 223 224 226 227 228 229 231 232 232 232 233 233 234
300 298 296 294 291 288 285 282 280 277 275 272 269 265 262 259 256 253 250 247 246 243 239 237 233 230 227 225 224 224 224 224 225 227 228 228 230 233 233 232 233 234 236
301 299 297 295 293 290 287 283 280 277 274 271 269 266 262 259 255 252 250 248 247 244 239 237 233 230 227 225 224 225 225 224 224 226 227 228 229 232 233 233 234 236 236
303 301 300 297 294 291 288 284 281 277 273 270 268 265 262 258 255 252 250 248 245 243 241 236 233 231 229 227 226 226 225 224 225 226 226 227 229 232 233 233 235 237 237
307 305 303 300 296 293 289 285 281 277 273 269 266 263 261 258 255 252 249 247 244 242 239 236 234 232 231 230 228 226 225 225 226 227 226 227 229 230 232 233 234 236 237
311 309 306 302 299 295 290 286 281 276 272 268 265 262 259 257 254 251 248 245 243 241 239 237 233 231 230 229 228 226 225 226 227 226 226 227 228 229 230 232 233 235 237
315 311 308 304 300 296 291 287 282 276 271 267 263 260 257 254 252 249 247 244 241 240 238 235 233 230 228 227 228 226 226 226 226 227 227 227 227 228 230 231 232 234 235
318 314 310 306 301 297 292 288 283 277 272 267 262 258 255 252 250 248 245 243 241 239 238 236 233 231 229 227 227 226 225 225 225 226 225 226 226 228 229 230 232 233 235
321 317 313 308 303 298 293 288 283 278 273 268 263 258 254 251 249 247 244 242 240 238 236 236 234 231 230 227 227 226 225 224 224 224 223 224 225 226 228 229 231 231 232
322 318 315 310 305 300 295 290 285 280 275 269 265 260 256 252 249 246 244 241 239 237 235 234 233 231 230 228 226 224 223 222 222 221 222 223 223 225 227 228 228 228 229
323 320 316 312 307 302 297 292 286 281 277 272 267 261 257 253 250 247 244 242 239 237 235 233 233 231 229 228 226 223 222 221 219 219 219 221 222 223 224 225 226 226 226
324 322 318 314 310 305 299 293 288 283 278 273 268 263 259 255 251 248 245 242 239 236 234 232 231 231 229 229 227 224 222 221 219 218 218 218 219 219 221 223 223 222 223
325 322 319 316 311 306 301 296 290 285 280 275 270 265 261 257 253 249 245 242 239 236 233 231 230 229 229 228 227 225 222 221 218 217 216 216 216 217 218 219 219 220 220
325 322 320 316 312 308 303 299 294 288 283 278 273 268 263 259 254 250 246 242 239 236 233 230 228 228 228 228 226 225 223 222 219 216 215 214 214 215 215 216 217 218 218
325 322 320 317 313 309 305 301 296 291 286 281 277 272 267 262 257 252 247 243 239 236 233 230 227 226 226 226 226 225 223 223 220 216 215 213 213 213 213 214 215 215 216
324 322 320 317 314 311 308 304 299 294 289 283 279 274 270 265 260 254 249 244 240 236 232 230 227 225 225 224 224 224 223 222 221 218 214 212 212 211 212 213 214 214 214
324 322 320 318 316 312 310 306 302 298 293 287 281 276 271 265 260 256 251 246 241 237 233 229 226 225 223 222 222 222 223 223 221 219 216 212 211 210 211 212 213 213 213
324 323 321 320 317 314 311 308 305 301 296 291 286 281 274 268 262 257 252 247 242 237 233 228 224 223 222 220 220 220 221 222 221 219 216 212 211 211 211 212 212 212 213
324 323 322 321 319 316 313 310 307 303 299 294 289 283 277 270 264 260 254 248 242 236 232 227 224 222 220 219 218 218 219 220 220 218 216 212 212 212 212 212 212 212 213
Height
5859 5858 5857 5856 5855 5854 5853 5853 5852 5852 5851 5851 5851 5851 5852 5852 5853 5854 5857 5859 5862 5865 5868 5871 5874 5877 5879 5882 5885 5888 5891 5893 5896 5899 5902 5904 5906 5909 5911 5912 5914 5915 5917
5853 5852 5851 5850 5848 5847 5846 5845 5845 5845 5844 5844 5844 5845 5846 5846 5847 5848 5850 5852 5855 5858 5861 5865 5868 5871 5874 5877 5880 5883 5886 5889 5892 5895 5898 5901 5903 5905 5908 5910 5912 5913 5915
5846 5845 5844 5842 5841 5840 5839 5838 5838 5838 5837 5837 5837 5838 5839 5840 5841 5842 5843 5845 5848 5851 5854 5858 5861 5865 5868 5872 5875 5878 5881 5884 5887 5890 5893 5897 5899 5902 5904 5907 5909 5911 5913
5839 5837 5836 5834 5833 5832 5831 5830 5830 5830 5830 5830 5830 5831 5831 5833 5834 5835 5836 5838 5840 5843 5846 5850 5854 5858 5862 5865 5869 5872 5876 5879 5882 5885 5889 5892 5895 5898 5900 5903 5905 5908 5910
5831 5830 5828 5826 5825 5824 5823 5822 5822 5822 5822 5822 5822 5823 5824 5825 5826 5827 5829 5830 5832 5835 5838 5842 5845 5850 5854 5858 5862 5866 5870 5873 5877 5880 5884 5887 5890 5893 5896 5899 5902 5904 5906
5824 5821 5820 5818 5817 5815 5814 5814 5813 5813 5813 5813 5814 5815 5816 5817 5818 5819 5821 5823 5825 5828 5830 5834 5837 5842 5846 5850 5855 5859 5863 5867 5871 5874 5878 5882 5885 5888 5891 5894 5897 5900 5903
5816 5814 5812 5810 5808 5807 5806 5805 5805 5804 5804 5805 5806 5807 5808 5808 5810 5811 5813 5816 5817 5820 5822 5826 5829 5833 5838 5843 5847 5852 5856 5860 5865 5868 5872 5876 5880 5883 5886 5889 5892 5895 5898
5809 5806 5804 5802 5800 5798 5797 5796 5795 5795 5795 5796 5797 5798 5800 5801 5802 5803 5805 5808 5810 5812 5815 5818 5821 5825 5830 5835 5840 5844 5849 5853 5858 5862 5866 5870 5874 5878 5881 5884 5887 5890 5893
5801 5798 5796 5794 5792 5790 5788 5787 5786 5786 5786 5786 5787 5789 5790 5792 5793 5796 5797 5799 5801 5804 5806 5809 5813 5817 5821 5827 5832 5837 5841 5846 5851 5855 5860 5864 5868 5872 5875 5878 5882 5885 5888
5793 5791 5788 5786 5784 5782 5780 5779 5778 5777 5777 5777 5778 5779 5781 5782 5784 5787 5789 5791 5793 5795 5798 5801 5804 5809 5813 5818 5823 5829 5833 5838 5843 5848 5852 5857 5861 5865 5869 5872 5876 5879 5883
5785 5783 5780 5778 5776 5773 5772 5770 5769 5768 5768 5768 5768 5769 5771 5773 5774 5777 5779 5782 5784 5786 5789 5793 5796 5800 5804 5809 5815 5820 5825 5830 5835 5840 5845 5850 5854 5858 5863 5866 5870 5874 5877
5777 5774 5772 5769 5767 5765 5763 5761 5760 5759 5758 5758 5759 5760 5761 5763 5764 5767 5770 5772 5775 5778 5781 5784 5788 5792 5796 5800 5806 5811 5816 5822 5827 5832 5837 5842 5847 5851 5856 5860 5864 5867 5871
5769 5766 5763 5760 5757 5755 5753 5751 5749 5748 5748 5748 5748 5749 5750 5752 5754 5757 5760 5762 5765 5769 5772 5776 5779 5783 5787 5792 5797 5802 5807 5813 5819 5824 5829 5834 5840 5844 5849 5853 5857 5861 5865
5761 5757 5753 5750 5747 5744 5742 5740 5738 5737 5736 5737 5737 5738 5739 5741 5743 5746 5749 5752 5756 5759 5763 5766 5769 5773 5778 5782 5787 5792 5798 5804 5810 5815 5821 5827 5832 5837 5842 5847 5851 5855 5859
5753 5749 5744 5740 5736 5733 5730 5728 5726 5725 5724 5724 5725 5726 5728 5730 5732 5735 5738 5741 5746 5749 5753 5757 5760 5764 5768 5773 5778 5783 5788 5794 5800 5806 5812 5818 5824 5829 5834 5839 5844 5848 5852
5745 5740 5735 5730 5726 5722 5719 5716 5714 5713 5712 5712 5712 5714 5716 5718 5720 5723 5726 5730 5734 5738 5743 5747 5750 5754 5759 5764 5768 5773 5779 5785 5791 5797 5803 5810 5816 5821 5827 5832 5837 5842 5846
5736 5730 5725 5720 5715 5711 5707 5704 5702 5700 5700 5699 5699 5701 5702 5705 5707 5710 5714 5718 5722 5727 5732 5736 5740 5745 5749 5754 5759 5764 5769 5775 5781 5788 5794 5801 5807 5813 5819 5825 5830 5835 5839
5726 5721 5715 5709 5704 5700 5696 5693 5690 5688 5688 5687 5687 5688 5689 5691 5694 5697 5701 5705 5710 5715 5721 5726 5729 5734 5740 5744 5749 5754 5760 5765 5772 5778 5785 5791 5798 5805 5811 5817 5823 5828 5833
5717 5710 5705 5699 5694 5689 5685 5681 5679 5676 5675 5674 5674 5675 5676 5678 5680 5683 5687 5692 5696 5702 5708 5714 5718 5723 5729 5734 5739 5744 5750 5756 5762 5768 5775 5782 5789 5796 5803 5810 5816 5821 5826
5707 5701 5694 5688 5683 5678 5673 5669 5666 5664 5662 5661 5660 5661 5662 5663 5666 5669 5673 5677 5682 5688 5694 5701 5707 5712 5718 5723 5729 5735 5740 5746 5752 5758 5765 5772 5779 5787 5795 5802 5808 5814 5819
5697 5691 5684 5678 5672 5666 5661 5657 5654 5651 5649 5647 5646 5646 5647 5648 5650 5653 5657 5662 5667 5673 5680 5687 5694 5700 5706 5713 5719 5725 5730 5736 5742 5748 5755 5763 5771 5779 5786 5794 5801 5807 5813
5688 5680 5674 5667 5661 5655 5650 5645 5642 5639 5636 5634 5632 5631 5631 5632 5634 5637 5640 5645 5651 5657 5665 5673 5680 5687 5694 5701 5708 5714 5720 5727 5733 5740 5746 5754 5762 5770 5779 5786 5793 5800 5807
5678 5670 5663 5656 5650 5643 5638 5633 5629 5626 5623 5620 5618 5616 5615 5616 5617 5620 5623 5628 5634 5640 5648 5657 5665 5673 5681 5689 5696 5704 5710 5717 5724 5730 5736 5744 5752 5761 5770 5778 5786 5793 5800
5668 5660 5652 5645 5638 5632 5626 5621 5616 5612 5608 5605 5603 5601 5600 5599 5600 5602 5606 5611 5616 5623 5631 5640 5650 5658 5665 5674 5683 5692 5699 5706 5712 5719 5727 5736 5744 5753 5762 5770 5778 5786 5793
5658 5650 5642 5635 5628 5621 5614 5609 5604 5599 5595 5591 5588 5586 5584 5584 5584 5585 5589 5593 5599 5605 5611 5621 5631 5640 5650 5660 5670 5679 5687 5695 5703 5711 5719 5728 5736 5745 5754 5762 5770 5778 5786
5648 5640 5632 5624 5617 5610 5604 5598 5592 5587 5583 5579 5575 5572 5570 5569 5569 5569 5572 5576 5581 5587 5593 5602 5612 5623 5634 5645 5655 5666 5676 5684 5693 5701 5710 5719 5728 5737 5746 5754 5762 5770 5778